GLD1620 SBBV-TGPY

Flight info

Callsign GLD1620
Flight time N/A
Altitude 39000
Route ANLO1A ANLOL ILNER LOLER KUMIX TOBLA ISAKU POS DUKLA IMORO
Aircraft A20N/M-SDE2E3FGHIRWXY/LB1

Departure

Time 2026-04-20 15:30
Airport Atlas Brasil Cantanhede International Airport (SBBV)

Arrival

Time N/A
Airport Maurice Bishop International Airport (TGPY)
Time Latitude Longitude Altitude Speed Heading
2026-04-20 15:12 2.84182 -60.69288 279 ft 0 kts 154°
2026-04-20 15:20 2.84201 -60.69296 279 ft 4 kts 160°
2026-04-20 15:21 2.84227 -60.69304 279 ft 4 kts 177°
2026-04-20 15:21 2.84250 -60.69299 279 ft 4 kts 232°
2026-04-20 15:21 2.84256 -60.69291 288 ft 1 kts 243°
2026-04-20 15:27 2.84249 -60.69304 281 ft 9 kts 243°
2026-04-20 15:27 2.84200 -60.69428 279 ft 23 kts 277°
2026-04-20 15:27 2.84168 -60.69566 279 ft 21 kts 248°
2026-04-20 15:27 2.84089 -60.69728 279 ft 32 kts 245°
2026-04-20 15:28 2.83984 -60.69937 279 ft 32 kts 242°
2026-04-20 15:28 2.83964 -60.70047 279 ft 0 kts 320°
2026-04-20 15:28 2.83971 -60.70053 282 ft 5 kts 320°
2026-04-20 15:29 2.84042 -60.70064 280 ft 15 kts
2026-04-20 15:29 2.84131 -60.69989 280 ft 30 kts 64°
2026-04-20 15:29 2.84395 -60.69457 280 ft 137 kts 63°
2026-04-20 15:29 2.84949 -60.68414 627 ft 193 kts 64°
2026-04-20 15:30 2.85634 -60.67088 1149 ft 231 kts 64°
2026-04-20 15:30 2.86322 -60.65718 1603 ft 209 kts 64°
2026-04-20 15:30 2.86956 -60.64445 1966 ft 206 kts 64°
2026-04-20 15:30 2.87624 -60.63133 2598 ft 215 kts 62°
2026-04-20 15:31 2.88631 -60.62063 3981 ft 212 kts 31°
2026-04-20 15:31 2.90074 -60.61707 5268 ft 223 kts
2026-04-20 15:31 2.91584 -60.62178 6395 ft 236 kts 330°
2026-04-20 15:31 2.92507 -60.62812 7141 ft 240 kts 326°
2026-04-20 15:32 2.93919 -60.63713 8247 ft 244 kts 334°
2026-04-20 15:32 2.95491 -60.64390 9382 ft 247 kts 343°
2026-04-20 15:32 2.97168 -60.64840 10442 ft 251 kts 349°
2026-04-20 15:32 2.98905 -60.65154 11572 ft 251 kts 352°
2026-04-20 15:33 3.00664 -60.65413 12488 ft 265 kts 353°
2026-04-20 15:33 3.02600 -60.65679 13110 ft 289 kts 353°